[TLELIST] Archives

 

[list_settings.list_name] Current TLEs

December 23rd 2021 PST

HST 1 20580U 90037B 21357.11670546 .00001602 00000-0 85488-4 0 9998 2 20580 28.4698 256.5512 0002466 296.3102 174.4534 15.09896059539794 ISS (ZARYA) 1 25544U 98067A 21357.14265046 .00007813 00000-0 14951-3 0 9998 2 25544 51.6435 128.3827 0004558 345.9807 14.2311 15.49060406317889 CXO 1 25867U 99040B 21355.86712132 .00000533 00000-0 00000-0 0 9997 2 25867 50.3398 246.5567 8602555 228.6205 359.8790 0.37805282 11131 ____________________________________________________________________ These 2-Line ...Continue Reading

[list_settings.list_name] Current TLEs

December 22nd 2021 PST

HST 1 20580U 90037B 21355.92025897 .00001516 00000-0 80320-4 0 9992 2 20580 28.4700 264.4705 0002453 282.4431 151.9947 15.09892174539351 ISS (ZARYA) 1 25544U 98067A 21356.17501157 .00006701 00000-0 12950-3 0 9998 2 25544 51.6432 133.1691 0004372 343.0185 17.5029 15.49040982317734 CXO 1 25867U 99040B 21355.86712132 .00000533 00000-0 00000-0 0 9997 2 25867 50.3398 246.5567 8602555 228.6205 359.8790 0.37805282 11131 ____________________________________________________________________ These 2-Line ...Continue Reading

[list_settings.list_name] Current TLEs

December 21st 2021 PST

HST 1 20580U 90037B 21354.48240800 .00001587 00000-0 84581-4 0 9996 2 20580 28.4702 273.9878 0002454 265.8075 257.5455 15.09889218539137 ISS (ZARYA) 1 25544U 98067A 21355.13790509 .00005755 00000-0 11245-3 0 9998 2 25544 51.6428 138.2997 0004449 340.2559 352.9952 15.49023197317564 CXO 1 25867U 99040B 21355.86697990 .00000533 00000-0 00000-0 0 9991 2 25867 50.3397 246.5568 8602561 228.6205 359.8598 0.37804967 11122 ____________________________________________________________________ These 2-Line ...Continue Reading

[list_settings.list_name] Current TLEs

December 20th 2021 PST

HST 1 20580U 90037B 21353.21828109 .00001215 00000-0 62170-4 0 9998 2 20580 28.4704 282.3551 0002464 251.1012 227.3482 15.09884575538945 ISS (ZARYA) 1 25544U 98067A 21354.37607546 .00012496 00000-0 23441-3 0 9992 2 25544 51.6425 142.0714 0004436 337.8980 64.2334 15.49020813317454 CXO 1 25867U 99040B 21355.86690823 .00000533 00000-0 00000-0 0 9999 2 25867 50.3397 246.5569 8602559 228.6205 359.8498 0.37804635 11121 ____________________________________________________________________ These 2-Line ...Continue Reading

[list_settings.list_name] Current TLEs

December 19th 2021 PST

HST 1 20580U 90037B 21352.56548692 .00001139 00000-0 57594-4 0 9990 2 20580 28.4705 286.6759 0002478 243.6803 279.4192 15.09883146538840 ISS (ZARYA) 1 25544U 98067A 21353.40799711 .00008705 00000-0 16593-3 0 9999 2 25544 51.6425 146.8560 0004506 334.1063 66.0525 15.49007964317303 CXO 1 25867U 99040B 21355.86690823 .00000533 00000-0 00000+0 0 9998 2 25867 50.3397 246.5569 8602559 228.6205 359.8498 0.37804635 22280 ____________________________________________________________________ These 2-Line ...Continue Reading

[list_settings.list_name] Current TLEs

December 18th 2021 PST

HST 1 20580U 90037B 21352.16263697 .00001051 00000-0 52316-4 0 9995 2 20580 28.4706 289.3424 0002489 238.9419 250.0940 15.09882063539059 ISS (ZARYA) 1 25544U 98067A 21352.44085047 .00009561 00000-0 18147-3 0 9990 2 25544 51.6429 151.6415 0004471 329.5453 73.8684 15.49000326317152 CXO 1 25867U 99040B 21353.22129070 .00000421 00000-0 00000+0 0 9993 2 25867 50.4042 246.6947 8599221 228.5550 359.7610 0.37803019 22271 ____________________________________________________________________ These 2-Line ...Continue Reading

[list_settings.list_name] Current TLEs

December 17th 2021 PST

HST 1 20580U 90037B 21351.15110213 .00000852 00000-0 40304-4 0 9990 2 20580 28.4707 296.0376 0002524 227.4040 152.4606 15.09879609538891 ISS (ZARYA) 1 25544U 98067A 21351.34932500 .00001654 00000-0 38218-4 0 9990 2 25544 51.6426 157.0365 0004281 323.4907 109.1604 15.48978274316989 CXO 1 25867U 99040B 21353.22129070 .00000421 00000-0 00000+0 0 9993 2 25867 50.4042 246.6947 8599221 228.5550 359.7610 0.37803019 22271 ____________________________________________________________________ These 2-Line ...Continue Reading

[list_settings.list_name] Current TLEs

December 16th 2021 PST

HST 1 20580U 90037B 21349.59113824 .00000758 00000-0 34699-4 0 9991 2 20580 28.4709 306.3627 0002569 209.9015 313.8696 15.09877323538391 ISS (ZARYA) 1 25544U 98067A 21350.31510551 .00001336 00000-0 32442-4 0 9994 2 25544 51.6423 162.1530 0004241 318.6083 103.0986 15.48972323316822 CXO 1 25867U 99040B 21353.22097761 .00000421 00000-0 00000+0 0 9994 2 25867 50.4045 246.6948 8599188 228.5547 359.7190 0.37804027 22276 ____________________________________________________________________ These 2-Line ...Continue Reading

[list_settings.list_name] Current TLEs

December 15th 2021 PST

HST 1 20580U 90037B 21348.90549752 .00000654 00000-0 28395-4 0 9999 2 20580 28.4710 310.9008 0002598 202.2028 187.3393 15.09876017538295 ISS (ZARYA) 1 25544U 98067A 21349.34784039 .00001389 00000-0 33412-4 0 9995 2 25544 51.6422 166.9375 0004173 314.2075 110.1874 15.48969273316675 CXO 1 25867U 99040B 21347.93111846 .00000306 00000-0 00000-0 0 9999 2 25867 50.5447 246.9740 8589916 228.4281 359.6965 0.37803426 11109 ____________________________________________________________________ These 2-Line ...Continue Reading

[list_settings.list_name] Current TLEs

December 14th 2021 PST

HST 1 20580U 90037B 21347.40455692 .00000627 00000-0 26755-4 0 9990 2 20580 28.4711 320.8351 0002659 185.7065 309.2197 15.09874545538067 ISS (ZARYA) 1 25544U 98067A 21348.27067493 .00000944 00000-0 25341-4 0 9992 2 25544 51.6421 172.2664 0004169 309.7715 224.0760 15.48963689316506 CXO 1 25867U 99040B 21347.93111846 .00000306 00000-0 00000-0 0 9999 2 25867 50.5447 246.9740 8589916 228.4281 359.6965 0.37803426 11109 ____________________________________________________________________ These 2-Line ...Continue Reading
  • This mailing list is a public mailing list - anyone may join or leave, at any time.
  • This mailing list is announce-only.

International Space Station (ISS) / Hubble Space Telescope (HST) / Chandra X-Ray Observatory Orbital Data via EMAIL

Privacy Policy:

Private list